Location: Bartlow
(52.0833°N, 0.3167°E)
Time: 19:19:03
(UTC+00:00)

NOSS 2-2 (D) - Pass Details

Date: 26 September 2023
Orbit: 412 x 1756 km, 63.3° (Epoch: 06 December)

Event Time Altitude Azimuth Distance (km) Brightness Sun altitude
Exits shadow 03:16:03 50° 304° (NW) 882 4.1 -23.5°
Maximum altitude 03:17:18 81° 227° (SW) 748 3.7 -23.3°
Drops below altitude 10° 03:23:23 10° 141° (SE) 2,695 6.9 -22.5°
Sets 03:26:27 0° 140° (SE) 3,878 7.8 -22.1°
